FW9721 Weather Reports


Display with metric or nautical units.
time (UTC)temp
F
wind
direction
speed
MPH
gust
MPH
rain 1hr
in
rain 24hr
in
rain mn
in
humidity
%
barometer
mb
20260507003051 81 103 9.0 22.0 0.00 0.00 0.00 88 1004.8
20260507001606 81 115 15.0 20.0 0.00 0.00 0.00 87 1004.5
20260507000050 82 110 13.0 21.0 0.00 0.00 0.00 86 1004.4
20260506234557 82 96 14.0 24.0 0.00 0.00 0.00 86 1004.3
20260506233052 82 106 15.0 23.0 0.00 0.00 0.00 85 1004.4
20260506231553 83 115 11.0 16.0 0.00 0.00 0.00 84 1004.2
20260506230049 83 98 10.0 18.0 0.00 0.00 0.00 85 1004.0
20260506224600 83 106 14.0 19.0 0.00 0.00 0.00 84 1003.8
20260506223041 83 91 13.0 23.0 0.00 0.00 0.00 83 1003.8
20260506221541 83 114 18.0 22.0 0.00 0.00 0.00 82 1003.8
20260506220051 84 114 14.0 21.0 0.00 0.00 0.00 82 1003.8
20260506214549 84 101 15.0 19.0 0.00 0.00 0.00 81 1003.9
20260506213046 85 96 10.0 18.0 0.00 0.00 0.00 79 1004.0
20260506211553 85 115 9.0 17.0 0.00 0.00 0.00 80 1004.1
20260506210045 85 98 10.0 16.0 0.00 0.00 0.00 78 1004.2
20260506204550 86 91 8.0 16.0 0.00 0.00 0.00 78 1004.2
20260506203040 86 40 5.0 16.0 0.00 0.00 0.00 79 1004.6
20260506201539 86 75 10.0 16.0 0.00 0.00 0.00 79 1004.6
20260506200047 86 257 7.0 13.0 0.00 0.00 0.00 79 1004.9
20260506194546 86 111 4.0 12.0 0.00 0.00 0.00 80 1005.0
20260506193053 85 106 7.0 12.0 0.00 0.00 0.00 79 1005.3
20260506191539 85 129 7.0 13.0 0.00 0.00 0.00 80 1005.7
20260506190046 86 103 6.0 11.0 0.00 0.00 0.00 80 1005.9
20260506184543 85 128 5.0 12.0 0.00 0.00 0.00 80 1005.9
20260506183043 85 95 5.0 10.0 0.00 0.00 0.00 81 1006.0
20260506181559 84 72 6.0 10.0 0.00 0.00 0.00 83 1006.2
20260506180049 83 101 7.0 13.0 0.00 0.00 0.00 84 1006.5
20260506174547 83 46 11.0 14.0 0.00 0.00 0.00 83 1006.7
20260506173107 83 86 7.0 10.0 0.00 0.00 0.00 82 1006.9
20260506171549 83 91 7.0 10.0 0.00 0.00 0.00 83 1007.0
20260506170041 83 40 7.0 11.0 0.00 0.00 0.00 83 1007.1
20260506164547 83 54 5.0 9.0 0.00 0.00 0.00 83 1007.3
20260506163048 82 110 4.0 11.0 0.00 0.00 0.00 84 1007.2
20260506161543 82 107 5.0 10.0 0.00 0.00 0.00 84 1007.2
20260506160057 81 96 7.0 13.0 0.00 0.00 0.00 85 1007.3
20260506154548 82 96 6.0 9.0 0.00 0.00 0.00 87 1007.3
20260506153043 81 35 6.0 13.0 0.00 0.00 0.00 87 1007.3
20260506151546 80 91 9.0 15.0 0.00 0.00 0.00 88 1007.2
20260506150048 80 76 9.0 14.0 0.00 0.00 0.00 89 1007.0
20260506144543 80 86 11.0 16.0 0.00 0.00 0.00 89 1007.1
20260506143051 80 80 13.0 17.0 0.00 0.00 0.00 90 1007.0
20260506141538 80 76 9.0 14.0 0.00 0.00 0.00 90 1007.2
20260506140038 80 76 8.0 11.0 0.00 0.00 0.00 90 1007.1
20260506134547 79 89 6.0 11.0 0.00 0.00 0.00 91 1007.1
20260506133040 79 86 6.0 9.0 0.00 0.00 0.00 91 1007.0
20260506131554 79 90 8.0 10.0 0.00 0.00 0.00 91 1007.1
20260506130053 79 86 5.0 8.0 0.00 0.00 0.00 91 1007.1
20260506124538 79 72 4.0 7.0 0.00 0.02 0.00 91 1006.9
20260506123045 79 36 4.0 8.0 0.00 0.02 0.00 91 1006.8
20260506121542 79 112 3.0 8.0 0.00 0.02 0.00 91 1006.9
20260506120040 79 81 6.0 9.0 0.00 0.02 0.00 91 1006.6
20260506114538 79 103 5.0 7.0 0.00 0.02 0.00 91 1006.6
20260506113038 79 106 4.0 6.0 0.00 0.02 0.00 91 1006.7
20260506111545 79 117 2.0 5.0 0.00 0.02 0.00 91 1006.6
20260506110041 79 103 2.0 6.0 0.00 0.02 0.00 91 1006.4
20260506104547 79 121 2.0 7.0 0.00 0.02 0.00 91 1006.2
20260506103044 79 139 6.0 8.0 0.00 0.02 0.00 91 1006.1
20260506101539 79 143 5.0 8.0 0.00 0.02 0.00 91 1006.1
20260506100045 79 135 5.0 11.0 0.00 0.02 0.00 91 1006.0
20260506094554 79 151 8.0 11.0 0.00 0.02 0.00 91 1006.0
20260506093041 79 137 9.0 12.0 0.00 0.02 0.00 92 1006.0
20260506091549 79 134 8.0 13.0 0.00 0.02 0.00 92 1006.0
20260506090046 79 100 3.0 7.0 0.00 0.02 0.00 92 1005.9
20260506084547 79 154 5.0 8.0 0.00 0.02 0.00 92 1006.2
20260506083046 79 96 2.0 7.0 0.00 0.02 0.00 92 1006.1
20260506081544 79 122 5.0 9.0 0.00 0.02 0.00 92 1006.0
20260506073048 79 136 7.0 11.0 0.00 0.02 0.00 91 1006.6
20260506071548 79 138 8.0 12.0 0.00 0.02 0.00 91 1006.6
20260506061547 79 138 9.0 17.0 0.00 0.02 0.00 91 1007.2
20260506060106 79 143 12.0 17.0 0.00 0.02 0.00 91 1007.4
20260506044547 79 137 11.0 16.0 0.00 0.02 0.02 91 1007.4
20260506043042 79 138 11.0 15.0 0.00 0.02 0.02 90 1007.3
20260506041550 79 125 8.0 16.0 0.00 0.02 0.02 90 1007.3
20260506040044 79 130 9.0 15.0 0.00 0.02 0.02 90 1007.1
20260506034538 79 134 9.0 14.0 0.00 0.02 0.02 90 1006.8
20260506033046 79 121 8.0 16.0 0.00 0.02 0.02 89 1006.8
20260506031548 79 149 13.0 22.0 0.00 0.02 0.02 89 1006.6
20260506030040 79 143 13.0 19.0 0.00 0.02 0.02 89 1006.5
20260506024556 79 91 10.0 20.0 0.00 0.02 0.02 88 1006.4
20260506023053 79 121 9.0 15.0 0.00 0.02 0.02 88 1006.2
20260506021541 79 135 9.0 18.0 0.00 0.02 0.02 88 1005.8
20260506020047 79 149 8.0 16.0 0.00 0.02 0.02 87 1005.7
20260506014546 80 141 12.0 19.0 0.00 0.02 0.02 87 1005.5
20260506013046 80 141 9.0 18.0 0.00 0.02 0.02 87 1005.4
20260506011543 80 129 6.0 17.0 0.00 0.02 0.02 86 1005.4
20260506010041 80 146 10.0 19.0 0.00 0.02 0.02 86 1005.1
20260506004540 80 60 10.0 18.0 0.00 0.02 0.02 86 1004.9